Indianapolis, IN

12:56 AM EST on November 18, 2019 (GMT -0500)
Indianapolis Terry

Weather History for KTYQ - October, 2019

Change the Weather History Date:

Tuesday, October 22, 2019

  Actual Average (KEYE) Record (KEYE)
Temperature  
Mean Temperature 48 °F -  
Max Temperature 52 °F 59 °F 79 °F (2015)
Min Temperature 45 °F 42 °F 30 °F (1997)
Degree Days  
Heating Degree Days 16    
Moisture  
Dew Point 42 °F    
Average Humidity 77    
Maximum Humidity 100    
Minimum Humidity 57    
Precipitation  
Precipitation 0.00 in - - ()
Sea Level Pressure  
Sea Level Pressure 29.79 in    
Wind  
Wind Speed 11 mph ()    
Max Wind Speed 22 mph    
Max Gust Speed 31 mph    
Visibility 10.0 miles    
Events Rain    
Averages and records for this station are not official NWS values.
T = Trace of Precipitation, MM = Missing Value Source: Averaged Metar Reports

Daily Weather History Graph

Daily Weather History Graph

Search for Another Location

Airport or City:

Astronomy

Oct. 22, 2019 Rise Set
Actual Time 8:02 AM EDT 6:55 PM EDT
Civil Twilight 7:35 AM EDT 7:23 PM EDT
Nautical Twilight 7:03 AM EDT 7:54 PM EDT
Astronomical Twilight 6:32 AM EDT 8:26 PM EDT
Moon 1:11 AM EDT (10/22) 4:04 PM EDT (10/22)
Length of Visible Light 11h 47m
Length of Day
10h 52m
Last Quarter, 37% of the Moon is Illuminated
Oct 22
Last Quarter
Oct 27
New
Nov 4
First Quarter
Nov 12
Full
Nov 19
Last Quarter

Hourly Weather History & Observations

Time (EDT) Temp. Windchill Dew Point Humidity Pressure Visibility Wind Dir Wind Speed Gust Speed Precip Events Conditions
12:15 AM 51.4 °F - 49.6 °F 94% 29.75 in 10.0 mi SW 8.1 mph - N/A Rain Rain
12:35 AM 50.2 °F - 50.2 °F 100% 29.74 in 10.0 mi South 5.8 mph - N/A   Mostly Cloudy
12:55 AM 47.8 °F - 47.8 °F 100% 29.74 in 10.0 mi South 5.8 mph - N/A   Scattered Clouds
1:15 AM 47.3 °F - 47.3 °F 100% 29.74 in 10.0 mi South 6.9 mph - N/A   Clear
1:35 AM 47.7 °F - 47.7 °F 100% 29.75 in 10.0 mi South 6.9 mph - N/A   Clear
1:55 AM 47.1 °F - 47.1 °F 100% 29.74 in 10.0 mi South 6.9 mph - N/A   Clear
2:35 AM 46.6 °F - 46.4 °F 99% 29.73 in 10.0 mi SSW 6.9 mph - N/A   Clear
2:55 AM 47.5 °F - 44.8 °F 90% 29.72 in 10.0 mi SSW 9.2 mph - N/A   Clear
3:15 AM 49.1 °F - 43.3 °F 81% 29.71 in 10.0 mi SSW 10.4 mph 16.1 mph N/A   Clear
3:35 AM 49.1 °F - 43.2 °F 80% 29.71 in 10.0 mi SSW 10.4 mph - N/A   Clear
3:55 AM 48.9 °F - 43.5 °F 82% 29.70 in 10.0 mi SSW 11.5 mph - N/A   Clear
4:15 AM 47.8 °F - 43.9 °F 86% 29.70 in 10.0 mi South 9.2 mph - N/A   Clear
4:35 AM 47.3 °F - 44.6 °F 90% 29.70 in 10.0 mi SSW 9.2 mph - N/A   Clear
4:55 AM 47.8 °F - 44.2 °F 87% 29.69 in 10.0 mi SSW 10.4 mph - N/A   Clear
5:15 AM 47.5 °F - 44.1 °F 88% 29.69 in 10.0 mi SSW 9.2 mph - N/A   Clear
5:35 AM 46.9 °F - 44.2 °F 90% 29.70 in 10.0 mi SSW 9.2 mph - N/A   Clear
5:55 AM 47.1 °F - 43.9 °F 88% 29.70 in 10.0 mi SSW 9.2 mph - N/A   Clear
6:15 AM 47.1 °F - 43.7 °F 88% 29.70 in 10.0 mi SW 11.5 mph 17.3 mph N/A   Clear
6:35 AM 47.5 °F - 42.8 °F 84% 29.71 in 10.0 mi SW 11.5 mph - N/A   Clear
6:55 AM 46.8 °F - 42.8 °F 86% 29.71 in 10.0 mi SW 10.4 mph 16.1 mph N/A   Clear
7:15 AM 46.4 °F 40.7 °F 42.8 °F 87% 29.72 in 10.0 mi SW 12.7 mph 17.3 mph N/A   Clear
7:35 AM 46.2 °F 40.5 °F 42.3 °F 86% 29.72 in 10.0 mi SW 12.7 mph 17.3 mph N/A   Clear
7:55 AM 46.0 °F 40.6 °F 42.3 °F 87% 29.73 in 10.0 mi SW 11.5 mph 18.4 mph N/A   Clear
8:15 AM 45.9 °F 39.4 °F 42.3 °F 87% 29.73 in 10.0 mi SW 15.0 mph - N/A   Clear
8:35 AM 46.4 °F 41.1 °F 41.9 °F 84% 29.74 in 10.0 mi WSW 11.5 mph - N/A   Clear
8:55 AM 46.9 °F - 41.7 °F 82% 29.74 in 10.0 mi SW 12.7 mph 19.6 mph N/A   Clear
9:15 AM 47.8 °F - 41.4 °F 78% 29.75 in 10.0 mi SW 17.3 mph 21.9 mph N/A   Clear
9:35 AM 49.1 °F - 41.7 °F 76% 29.76 in 10.0 mi SW 15.0 mph 21.9 mph N/A   Scattered Clouds
9:55 AM 49.1 °F - 41.4 °F 75% 29.76 in 10.0 mi SW 18.4 mph 24.2 mph N/A   Overcast
10:15 AM 49.1 °F - 41.4 °F 75% 29.76 in 10.0 mi SW 19.6 mph 25.3 mph N/A   Overcast
10:35 AM 49.5 °F - 41.0 °F 73% 29.76 in 10.0 mi SW 17.3 mph 25.3 mph N/A   Overcast
10:55 AM 50.0 °F - 41.0 °F 71% 29.76 in 10.0 mi SW 16.1 mph 25.3 mph N/A   Overcast
11:15 AM 50.0 °F - 41.0 °F 71% 29.76 in 10.0 mi WSW 19.6 mph 26.5 mph N/A   Overcast
11:35 AM 50.7 °F - 41.0 °F 69% 29.76 in 10.0 mi SW 17.3 mph 24.2 mph N/A   Overcast
11:55 AM 52.5 °F - 40.5 °F 64% 29.77 in 10.0 mi SW 18.4 mph 26.5 mph N/A   Mostly Cloudy
12:15 PM 52.5 °F - 39.6 °F 61% 29.77 in 10.0 mi WSW 18.4 mph 28.8 mph N/A   Overcast
12:35 PM 52.3 °F - 40.1 °F 63% 29.78 in 10.0 mi WSW 17.3 mph 24.2 mph N/A   Mostly Cloudy
12:55 PM 51.8 °F - 38.7 °F 61% 29.78 in 10.0 mi WSW 15.0 mph 25.3 mph N/A   Mostly Cloudy
1:15 PM 52.0 °F - 39.2 °F 62% 29.79 in 10.0 mi SW 18.4 mph 25.3 mph N/A   Overcast
1:35 PM 51.8 °F - 39.6 °F 63% 29.79 in 10.0 mi WSW 13.8 mph 24.2 mph N/A   Overcast
1:55 PM 51.4 °F - 39.9 °F 65% 29.79 in 10.0 mi WSW 17.3 mph 23.0 mph N/A   Overcast
2:15 PM 51.8 °F - 39.6 °F 63% 29.78 in 10.0 mi WSW 18.4 mph 26.5 mph N/A   Overcast
2:35 PM 51.8 °F - 40.6 °F 66% 29.78 in 10.0 mi West 15.0 mph 27.6 mph N/A   Overcast
2:55 PM 50.7 °F - 40.3 °F 67% 29.79 in 10.0 mi West 13.8 mph 25.3 mph N/A   Overcast
3:15 PM 51.6 °F - 39.7 °F 64% 29.79 in 10.0 mi WSW 21.9 mph 31.1 mph N/A   Overcast
3:35 PM 51.6 °F - 39.2 °F 63% 29.79 in 10.0 mi WSW 21.9 mph 28.8 mph N/A   Overcast
3:55 PM 50.9 °F - 40.8 °F 68% 29.80 in 10.0 mi WSW 16.1 mph 24.2 mph N/A   Overcast
4:15 PM 51.1 °F - 40.5 °F 67% 29.81 in 10.0 mi West 16.1 mph 26.5 mph N/A   Mostly Cloudy
4:35 PM 52.3 °F - 38.7 °F 60% 29.81 in 10.0 mi WSW 11.5 mph 24.2 mph N/A   Mostly Cloudy
4:55 PM 52.7 °F - 37.9 °F 57% 29.82 in 10.0 mi WSW 20.7 mph 28.8 mph N/A   Scattered Clouds
5:15 PM 52.3 °F - 37.4 °F 57% 29.83 in 10.0 mi WSW 17.3 mph 26.5 mph N/A   Mostly Cloudy
5:35 PM 52.2 °F - 37.6 °F 58% 29.83 in 10.0 mi WSW 13.8 mph 25.3 mph N/A   Mostly Cloudy
5:55 PM 52.5 °F - 37.8 °F 57% 29.83 in 10.0 mi WSW 13.8 mph 25.3 mph N/A   Mostly Cloudy
6:15 PM 51.8 °F - 37.9 °F 59% 29.83 in 10.0 mi WSW 11.5 mph 20.7 mph N/A   Scattered Clouds
6:35 PM 50.4 °F - 38.8 °F 65% 29.84 in 10.0 mi WSW 10.4 mph - N/A   Clear
6:55 PM 50.9 °F - 39.2 °F 64% 29.85 in 10.0 mi SW 9.2 mph - N/A   Mostly Cloudy
7:15 PM 50.5 °F - 39.4 °F 66% 29.86 in 10.0 mi SW 9.2 mph - N/A   Overcast
7:35 PM 50.0 °F - 40.1 °F 69% 29.86 in 10.0 mi SSW 9.2 mph - N/A   Overcast
7:55 PM 49.3 °F - 40.3 °F 71% 29.86 in 10.0 mi SW 8.1 mph - N/A   Overcast
8:15 PM 49.5 °F - 40.1 °F 70% 29.87 in 10.0 mi SW 8.1 mph - N/A   Overcast
8:35 PM 48.4 °F - 42.4 °F 80% 29.89 in 7.0 mi West 17.3 mph 24.2 mph N/A Rain Heavy Rain
8:55 PM 46.6 °F - 43.9 °F 90% 29.88 in 10.0 mi WSW 6.9 mph - N/A   Mostly Cloudy
9:15 PM 46.4 °F 41.1 °F 42.6 °F 87% 29.89 in 10.0 mi SW 11.5 mph - N/A   Scattered Clouds
9:35 PM 46.2 °F 42.2 °F 41.9 °F 85% 29.89 in 10.0 mi WSW 8.1 mph - N/A   Clear
9:55 PM 47.1 °F - 41.0 °F 79% 29.89 in 10.0 mi WSW 11.5 mph 16.1 mph N/A   Clear
10:10 PM 47.1 °F - 40.6 °F 78% 29.90 in 10.0 mi WSW 9.2 mph 16.1 mph N/A   Clear
10:35 PM 46.8 °F - 40.3 °F 78% 29.91 in 10.0 mi WSW 9.2 mph - N/A   Clear
10:55 PM 46.8 °F - 39.6 °F 76% 29.91 in 10.0 mi WSW 10.4 mph - N/A   Clear
11:15 PM 46.2 °F 41.2 °F 39.2 °F 76% 29.91 in 10.0 mi WSW 10.4 mph - N/A   Clear
11:35 PM 45.5 °F 40.3 °F 39.2 °F 79% 29.91 in 10.0 mi West 10.4 mph - N/A   Clear
11:55 PM 45.3 °F 40.6 °F 38.7 °F 78% 29.92 in 10.0 mi WSW 9.2 mph - N/A   Clear